Bangor International

Airport
ICAO code: 
KBGR
Summary
ICAO Region: 
NAM
Territory: 
Location: 
Bangor, Maine,
Coordinates: 
Aerial View: 
44° 48' 26.996" N, 68° 49' 41.002" W
Airport CFIT: 
Altimeter Temperature Error Correction
Airport WX: 
Cumulonimbus
Metar
Observation
KBGR 020153Z 19006KT 10SM BKN120 BKN250 21/17 A2982 RMK AO2 SLP096 T02110172
Station
Bangor, Bangor International Airport
Date/Time
2022-07-02 01:53:00
Wind direction
190°
Wind speed
06 kts
Lowest cloud amount
broken clouds
Temperature
21.1°C
Dew point
17.2°C
Humidity
78%
Weather condition
n/a

Description

International airport serving Bangor, Maine.

Climatology

Humid Continental climate (Köppen climate classification Dfb) - Variable weather patterns and a large seasonal temperature variance. Summers are often warm and humid with frequent thunderstorms and winters can be very cold with frequent snowfall and persistent snow cover.

Runways

Designator Length Width Surface Rops
15/33 3487 61 ASP Yes/Yes
Airport map: 
Aerial View: 

SKYbrary Partners:

Safety knowledge contributed by: